Terminal Aerodrome Forecast
Issued by NWS Mt. Holly, NJ

Home | Current Version | Previous Version | Text Only | Print | Product List | Glossary On
Versions: 1 2 3 4 5 6 7 8 9 10 11 12 13
000
FTUS41 KPHI 020520
TAFRDG
TAF
KRDG 020520Z 0206/0306 VRB03KT P6SM SCT250
      TEMPO 0209/0212 3SM BR
     FM021300 27005KT P6SM FEW050=

USA.gov is the U.S. government's official web portal to all federal, state and local government web resources and services.